Temperature
7 5 5 5 6 7 6 6 6 7 8 7 7 7 8 9 9 8 9 9 9 9 10 10 10 10 11 11 11 11 12 12 12 12 12 12 12 13 13 13 13 13 13 14
5 5 6 7 7 7 7 6 6 6 7 8 7 7 7 8 8 8 8 8 9 9 9 10 10 10 10 11 11 11 11 12 12 12 12 12 12 13 13 13 13 13 13 13
5 6 7 7 7 6 6 6 6 6 7 7 7 6 7 7 8 8 8 8 8 8 9 9 9 10 10 10 10 11 11 11 12 12 12 12 12 12 12 12 13 13 13 13
6 7 7 7 7 7 6 7 7 7 6 5 6 6 6 7 7 7 7 8 8 8 9 9 9 9 10 10 10 10 11 11 11 11 11 11 11 11 12 12 12 12 13 13
6 7 7 7 7 7 7 7 7 6 6 5 6 6 6 6 7 7 7 7 8 8 8 9 9 9 9 10 10 10 10 10 11 11 11 11 11 11 12 12 12 12 12 12
6 7 7 7 8 7 7 6 6 5 5 5 6 6 5 5 6 6 7 7 7 7 8 8 9 9 9 9 9 10 10 10 10 10 10 10 11 11 11 11 12 12 12 12
6 7 7 7 7 7 6 5 5 5 5 5 6 6 5 6 6 6 6 6 6 7 7 7 8 8 9 9 9 9 9 9 10 10 10 10 10 11 11 11 11 11 11 12
5 5 6 7 7 6 6 5 5 5 5 5 6 5 5 6 6 6 6 6 6 6 6 6 7 7 8 8 9 9 9 9 9 9 10 10 10 10 10 11 11 11 11 11
5 5 6 7 7 7 6 5 5 4 4 5 5 5 6 6 6 6 6 6 6 6 6 6 6 7 7 8 8 8 8 9 9 9 9 9 10 10 10 10 10 11 11 11
5 5 6 6 7 6 6 6 4 4 5 5 5 5 5 5 5 5 5 5 5 5 6 6 6 6 7 7 7 8 8 8 8 8 8 9 9 9 10 10 10 10 10 10
5 4 5 5 6 5 5 5 5 4 4 5 5 5 6 5 5 5 5 5 5 5 5 5 6 6 6 7 7 7 7 8 8 8 8 9 9 9 9 9 10 10 10 10
5 3 4 5 6 6 6 5 5 4 4 4 4 5 6 5 5 5 5 5 5 5 5 5 5 6 6 6 6 7 7 7 7 8 8 8 8 9 9 9 9 9 10 10
5 4 3 5 5 5 5 5 5 4 3 3 3 4 5 5 5 5 5 4 4 4 5 5 5 5 5 6 6 6 6 7 7 7 7 8 8 8 8 8 9 9 9 9
5 4 4 5 5 5 5 5 5 4 3 3 3 4 5 4 4 4 4 4 4 4 4 4 4 4 5 5 5 5 6 6 6 7 7 7 7 8 8 8 8 8 8 9
4 3 4 4 5 5 5 5 5 4 4 3 4 4 4 4 4 4 4 4 4 3 3 3 3 4 4 4 5 5 5 6 6 6 6 7 7 7 7 7 7 7 8 8
3 3 4 4 5 5 5 5 5 5 4 4 4 4 4 4 4 4 4 3 3 3 3 3 3 3 3 4 4 4 4 5 5 6 6 6 6 6 6 7 7 7 7 7
3 3 3 3 4 4 4 5 4 4 4 4 4 4 4 4 3 3 3 3 3 3 3 3 3 3 3 3 3 4 4 4 5 5 5 5 6 6 6 6 6 6 6 7
3 3 2 3 4 5 6 5 5 5 5 4 4 4 4 4 4 4 3 3 3 3 3 3 3 3 3 3 3 3 4 4 4 4 4 5 5 5 5 5 5 5 6 6
3 3 2 2 3 4 5 5 5 5 5 4 4 3 4 4 3 3 3 3 3 3 2 2 2 2 3 3 3 3 3 3 3 4 4 4 4 4 4 5 5 5 5 5
2 2 2 2 4 5 6 5 6 5 4 4 4 3 3 3 2 2 3 3 3 2 2 2 2 2 2 2 2 2 2 2 2 3 3 3 3 3 4 4 4 4 4 4
2 2 2 2 3 3 4 5 5 5 5 5 5 4 4 3 3 3 3 2 2 2 2 2 2 2 2 2 2 2 2 2 2 2 2 2 3 3 3 3 3 3 4 4
2 1 2 2 2 4 4 4 4 5 5 5 5 5 4 4 4 3 3 2 2 2 2 1 1 1 1 1 1 2 1 1 1 1 2 2 2 2 2 2 3 3 3 3
1 2 2 2 4 4 5 5 6 6 5 5 5 5 4 4 3 3 2 2 2 1 1 1 1 1 1 1 1 1 1 1 1 1 1 1 2 2 2 2 2 2 2 2
1 1 1 2 2 4 5 6 6 6 6 6 5 5 4 3 3 2 2 2 1 1 1 1 1 0 0 0 0 0 0 0 0 1 1 1 1 1 1 1 1 1 2 2
2 1 1 2 2 3 5 6 6 5 5 5 5 4 4 3 3 2 2 1 1 1 1 0 0 0 0 0 0 0 0 -0 0 0 0 0 0 1 1 1 1 1 1 1
1 2 2 3 4 3 5 7 6 5 5 4 4 4 3 3 2 2 2 1 1 1 0 0 -0 -0 0 -0 -0 -0 -0 -0 -0 -0 -1 -1 -0 -0 -0 0 0 0 0 1
Wind_Speed
2 2 3 6 6 5 4 4 6 7 5 3 6 10 11 9 5 4 4 3 3 4 4 3 3 3 3 4 5 6 6 6 6 5 5 6 8 8 8 7 10 13 13 15
2 3 7 5 4 3 3 4 6 7 4 3 4 9 9 6 5 3 3 4 3 3 2 2 2 2 3 5 5 5 6 6 7 6 5 4 6 6 7 6 7 11 13 13
4 5 4 2 2 2 3 4 4 5 6 4 3 6 6 6 5 5 4 3 4 2 2 2 2 2 3 3 5 5 5 5 6 6 4 4 5 4 5 6 6 8 11 13
3 4 2 2 3 2 4 4 4 4 3 4 2 3 5 7 8 8 6 4 4 4 4 3 2 2 3 3 3 4 4 5 4 4 4 7 7 7 6 6 6 7 10 11
3 2 0 2 4 3 5 4 4 4 2 3 2 1 6 6 7 9 7 6 5 4 5 4 3 1 2 2 3 3 2 3 4 4 5 6 6 5 5 5 6 7 8 9
3 2 1 3 3 2 3 2 2 1 1 2 2 2 4 4 6 7 7 7 7 7 6 5 4 3 1 1 1 2 2 2 3 4 5 6 7 7 7 6 7 7 6 7
3 2 2 0 2 4 4 3 3 4 3 2 2 1 3 5 5 5 5 6 7 7 6 7 6 5 3 3 1 0 2 1 1 3 5 6 6 6 8 7 7 7 7 6
1 3 3 1 1 1 1 3 3 2 2 3 3 0 3 4 5 5 5 5 6 7 7 7 7 5 4 3 2 1 1 0 1 1 3 4 4 4 5 6 7 7 7 7
2 2 3 1 1 1 1 0 2 3 1 2 3 3 3 4 6 7 8 8 8 7 7 7 7 7 6 5 4 2 2 1 0 1 2 3 3 4 4 5 6 5 5 5
2 1 3 2 3 3 1 2 2 2 1 1 4 3 3 5 5 6 7 8 8 7 7 7 7 7 7 6 5 4 3 2 2 1 1 1 2 3 4 5 5 6 6 6
2 2 3 3 1 1 2 2 1 1 2 2 2 4 3 2 2 3 4 6 7 8 8 7 7 7 7 7 7 6 4 3 3 3 3 2 1 2 3 4 5 6 6 7
1 3 1 3 3 1 1 1 2 2 1 1 2 4 3 0 1 2 4 5 7 7 7 7 8 8 8 8 8 8 6 4 3 3 3 2 2 1 1 2 3 4 6 7
2 4 2 4 4 3 1 1 1 3 2 2 2 4 3 2 3 4 4 5 6 7 8 9 9 9 9 9 9 8 8 6 4 4 3 3 3 2 2 2 2 3 4 5
3 3 3 4 4 2 3 2 1 3 2 2 4 4 4 3 3 4 4 4 5 6 8 9 9 9 9 8 8 8 8 7 6 5 5 4 4 3 3 3 2 2 3 4
3 1 1 3 3 3 3 3 2 3 5 5 5 4 5 3 2 2 2 4 6 6 7 8 8 8 8 9 9 9 9 9 7 6 6 5 5 4 4 3 3 2 2 3
2 1 1 3 3 2 3 5 4 4 3 4 4 5 4 2 1 1 2 3 4 5 6 7 7 8 8 8 8 8 8 8 7 6 6 6 5 5 4 4 3 2 1 1
1 2 1 2 4 4 5 6 6 4 4 5 6 5 2 1 1 2 1 2 3 4 5 7 7 7 7 7 7 8 8 7 7 6 6 6 5 4 5 5 4 3 2 1
4 3 1 1 3 3 5 2 5 5 4 5 4 3 4 3 2 1 1 1 2 4 5 6 6 7 6 7 7 7 7 7 7 7 6 6 5 4 4 5 4 4 2 1
3 4 2 1 2 6 6 3 4 4 4 5 5 4 3 2 2 2 2 1 1 2 3 3 4 5 5 7 7 7 8 8 8 8 7 7 6 5 4 4 4 4 3 2
3 4 3 2 2 5 5 2 3 4 4 4 6 6 4 4 1 4 2 1 2 2 2 3 4 4 5 6 6 6 7 7 8 8 8 7 6 5 5 5 4 4 3 2
2 2 3 4 5 8 6 3 5 3 6 3 6 6 6 5 5 3 1 1 1 2 2 2 3 4 4 5 5 5 6 7 7 8 7 7 6 5 5 4 4 4 3 2
7 6 6 5 5 8 4 6 6 7 2 3 5 5 5 4 3 2 2 1 1 2 2 2 3 4 4 5 5 5 6 7 7 7 7 7 6 5 4 4 4 3 3 2
7 8 6 9 8 4 6 7 5 4 4 4 5 4 5 4 4 3 2 1 1 1 2 2 2 4 5 4 4 5 7 7 7 7 7 7 6 5 4 3 3 3 3 2
5 4 4 5 8 6 6 6 4 5 5 5 5 5 5 5 4 3 2 2 1 2 2 2 3 4 4 5 5 4 6 6 6 7 7 6 5 5 4 3 3 3 3 2
6 5 4 6 7 5 6 8 7 4 4 4 3 4 5 5 4 3 3 3 2 2 1 1 2 3 4 5 5 5 6 6 6 6 6 6 5 5 4 3 3 3 3 3
6 8 8 9 8 7 7 6 7 7 6 6 5 4 4 5 5 4 3 3 2 1 1 2 2 3 3 4 4 5 6 5 5 5 5 5 4 4 4 4 4 4 4 5
Wind_Direction
149 101 240 242 227 234 243 259 281 286 293 296 281 287 296 301 297 291 289 287 279 263 267 253 225 232 218 215 209 200 189 181 177 180 191 187 186 186 185 187 194 189 187 184
73 257 252 249 255 252 253 275 292 297 308 297 299 308 310 316 318 308 311 311 291 273 295 281 263 239 222 214 212 210 200 188 184 188 193 194 181 184 184 182 191 191 186 187
188 254 254 242 260 257 262 249 267 282 316 315 314 325 334 332 356 6 0 338 314 286 284 282 260 242 224 222 208 202 201 204 196 190 184 186 170 163 175 185 193 196 189 189
247 278 273 251 252 236 276 255 253 282 333 315 352 319 324 344 2 7 359 349 341 343 344 314 283 242 216 214 211 208 194 194 187 181 188 190 185 187 190 186 194 193 188 188
263 283 271 255 262 233 247 265 261 261 264 313 316 223 312 349 355 351 355 1 356 360 3 350 335 300 246 219 205 204 179 190 181 182 192 193 193 195 186 181 191 196 191 187
256 274 224 241 278 254 274 328 327 2 89 324 293 176 322 339 333 341 354 5 10 7 2 1 3 9 345 275 208 183 145 164 186 193 198 193 196 195 188 191 197 200 196 194
328 313 303 327 348 354 44 59 24 7 11 275 340 108 287 313 338 348 356 0 3 7 9 12 11 9 359 354 351 140 140 153 187 197 197 193 195 198 198 197 201 201 198 200
60 310 299 333 184 286 342 120 142 184 249 299 355 324 280 320 355 12 18 5 6 11 14 16 11 7 3 4 12 25 113 162 222 209 195 183 190 196 206 209 206 206 203 201
159 273 303 278 259 126 56 26 178 138 351 325 322 306 302 356 11 14 13 16 15 13 9 9 8 8 12 13 13 28 55 44 22 246 203 188 196 201 207 216 209 210 208 203
156 233 299 315 35 13 140 168 83 108 124 323 316 301 299 323 349 358 3 6 7 8 6 6 5 8 13 18 16 21 36 44 33 357 306 244 213 218 214 216 217 214 212 203
103 123 331 12 30 297 5 34 80 113 149 152 277 284 272 256 307 343 354 358 360 2 1 1 5 10 13 15 18 15 16 17 13 2 357 9 341 267 230 217 224 216 210 204
124 112 334 288 290 242 191 205 147 145 233 155 177 275 321 203 356 8 359 0 0 0 -0 7 10 11 15 16 14 10 6 12 11 7 8 1 343 327 295 246 237 219 208 207
120 103 49 350 335 348 328 285 151 129 113 142 172 271 334 14 16 11 10 5 2 2 10 14 13 13 12 11 9 6 5 6 8 14 12 2 356 341 320 298 271 243 220 211
105 113 168 200 229 235 273 288 149 128 148 194 220 243 295 315 342 352 358 3 7 11 18 14 10 9 7 6 7 4 0 359 0 10 9 360 349 336 320 312 297 268 235 216
93 130 239 262 256 223 233 243 208 185 194 195 223 224 252 252 259 310 349 6 15 13 13 10 5 2 2 4 3 4 359 358 359 4 2 353 344 338 336 328 311 308 269 230
82 131 344 317 313 276 270 253 224 218 204 209 231 261 253 226 172 7 359 11 8 357 357 359 1 358 357 357 356 356 356 353 356 1 353 343 344 343 342 337 333 339 326 313
123 126 74 287 316 346 284 240 202 204 202 188 216 233 208 186 209 250 293 346 347 338 342 347 349 347 346 347 349 351 348 352 0 360 352 349 350 357 350 343 347 345 334 329
141 126 134 303 4 269 253 248 182 194 231 209 205 207 193 200 203 247 222 215 310 330 336 339 341 341 342 346 350 350 354 358 1 0 355 352 355 352 349 348 342 333 332 336
146 142 133 126 282 281 288 243 172 177 261 216 198 205 197 137 62 318 268 229 271 313 322 328 333 333 342 347 348 356 1 360 2 358 352 347 346 343 342 342 332 326 327 329
81 103 126 152 214 245 254 212 148 104 285 232 184 188 177 138 226 262 250 287 312 320 325 330 338 348 351 343 346 360 358 359 355 346 341 340 341 340 337 333 326 320 317 316
139 135 165 189 232 263 248 172 116 153 250 205 175 179 177 192 215 220 198 260 308 319 328 339 349 349 336 334 350 358 355 348 335 334 338 340 341 338 335 335 332 330 331 337
181 177 192 174 209 255 201 148 184 216 209 164 174 180 182 192 178 164 172 208 324 335 343 351 349 336 333 343 356 354 344 331 330 337 340 338 341 342 344 344 340 342 344 340
201 195 191 197 217 246 192 202 211 176 178 191 182 188 171 173 187 187 199 225 289 312 327 334 335 332 338 344 354 345 330 334 339 345 340 335 340 342 341 342 335 336 342 338
248 195 196 246 256 245 231 232 225 200 197 196 186 179 172 182 188 193 202 229 266 300 313 326 337 336 334 341 351 341 333 340 343 341 337 336 341 342 342 337 333 334 330 318
225 186 211 252 266 274 253 225 210 197 177 164 164 173 178 175 190 198 210 227 243 269 300 319 323 327 331 340 344 341 341 345 341 336 337 337 338 337 335 331 327 321 304 304
202 194 199 232 227 213 240 222 191 184 191 182 173 180 185 183 192 196 212 222 224 248 297 319 326 322 322 331 333 336 340 341 337 333 334 333 332 333 332 330 333 342 332 330
Height
1489 1493 1493 1490 1488 1487 1486 1486 1485 1479 1475 1474 1472 1467 1460 1457 1455 1454 1453 1452 1451 1451 1450 1451 1451 1452 1453 1454 1455 1457 1459 1462 1465 1468 1471 1473 1477 1481 1486 1489 1493 1497 1501 1505
1492 1492 1487 1485 1484 1484 1484 1485 1484 1479 1474 1473 1471 1466 1460 1457 1454 1453 1452 1451 1449 1449 1448 1447 1448 1449 1450 1452 1453 1454 1455 1457 1460 1464 1467 1469 1473 1477 1481 1484 1488 1492 1496 1500
1490 1488 1483 1483 1484 1484 1483 1484 1483 1481 1475 1472 1471 1468 1462 1457 1454 1452 1451 1450 1449 1447 1446 1446 1446 1446 1447 1449 1449 1451 1452 1454 1456 1460 1463 1465 1469 1472 1476 1479 1483 1487 1491 1495
1487 1484 1482 1483 1483 1482 1484 1479 1479 1478 1480 1479 1475 1476 1465 1460 1456 1453 1452 1450 1448 1446 1445 1445 1445 1445 1445 1446 1447 1449 1450 1452 1453 1456 1459 1461 1463 1466 1470 1474 1478 1482 1486 1489
1486 1483 1482 1482 1481 1480 1480 1477 1477 1477 1480 1481 1477 1478 1470 1463 1459 1456 1453 1450 1448 1446 1445 1444 1444 1444 1444 1445 1446 1446 1447 1449 1450 1452 1455 1457 1460 1463 1467 1471 1474 1478 1481 1484
1484 1482 1481 1481 1478 1478 1477 1478 1477 1479 1482 1483 1477 1478 1475 1468 1463 1459 1454 1451 1449 1447 1445 1444 1443 1443 1443 1443 1444 1444 1445 1446 1447 1449 1451 1453 1456 1460 1463 1466 1469 1472 1476 1479
1486 1483 1480 1479 1480 1479 1479 1485 1490 1488 1489 1483 1476 1477 1476 1468 1464 1460 1457 1454 1451 1448 1446 1444 1442 1442 1441 1441 1441 1441 1442 1443 1444 1446 1449 1451 1453 1456 1458 1461 1464 1467 1470 1473
1490 1490 1482 1480 1481 1481 1481 1484 1492 1491 1489 1484 1478 1478 1475 1468 1465 1461 1458 1455 1452 1449 1447 1445 1443 1441 1441 1440 1440 1440 1441 1441 1443 1444 1446 1447 1450 1452 1454 1456 1459 1462 1464 1468
1490 1489 1482 1480 1479 1480 1482 1485 1484 1490 1490 1489 1482 1478 1473 1468 1465 1462 1459 1456 1453 1451 1448 1446 1444 1443 1441 1440 1439 1439 1439 1440 1442 1442 1443 1444 1447 1449 1451 1453 1456 1458 1460 1463
1486 1489 1484 1481 1480 1480 1481 1482 1487 1490 1489 1487 1484 1480 1476 1470 1467 1464 1461 1458 1455 1452 1450 1448 1445 1443 1441 1440 1439 1438 1439 1439 1440 1440 1441 1441 1443 1445 1447 1449 1451 1453 1456 1459
1485 1490 1488 1484 1484 1484 1484 1484 1485 1489 1488 1491 1489 1483 1472 1471 1468 1466 1463 1460 1457 1454 1451 1449 1446 1444 1442 1440 1439 1438 1438 1438 1438 1439 1438 1439 1441 1442 1444 1445 1447 1449 1451 1454
1485 1491 1493 1488 1483 1482 1483 1483 1485 1489 1491 1493 1493 1487 1471 1470 1468 1466 1464 1462 1459 1456 1453 1450 1447 1445 1443 1441 1439 1438 1437 1436 1436 1437 1437 1438 1439 1440 1440 1441 1443 1445 1447 1449
1485 1491 1496 1492 1491 1486 1483 1482 1482 1486 1491 1495 1494 1487 1472 1471 1469 1468 1466 1464 1461 1458 1455 1452 1449 1446 1444 1442 1440 1438 1437 1435 1435 1435 1435 1436 1437 1438 1438 1438 1439 1441 1442 1444
1484 1490 1494 1491 1489 1486 1485 1482 1482 1486 1493 1493 1489 1482 1475 1473 1471 1469 1467 1465 1463 1460 1457 1455 1452 1449 1446 1444 1442 1440 1437 1436 1434 1434 1434 1434 1434 1435 1435 1436 1436 1437 1438 1439
1485 1490 1489 1487 1484 1484 1483 1482 1481 1483 1484 1486 1482 1480 1475 1473 1472 1470 1468 1466 1463 1461 1459 1456 1454 1451 1448 1445 1443 1440 1438 1436 1435 1434 1433 1433 1432 1433 1433 1433 1433 1433 1433 1434
1486 1490 1489 1487 1483 1482 1481 1479 1479 1479 1479 1480 1479 1477 1471 1471 1471 1470 1468 1467 1464 1462 1460 1457 1455 1452 1449 1447 1444 1442 1439 1437 1435 1434 1432 1432 1431 1431 1431 1431 1430 1430 1430 1430
1488 1490 1492 1492 1486 1483 1482 1476 1476 1476 1475 1475 1476 1473 1471 1471 1470 1469 1468 1467 1465 1463 1461 1458 1455 1453 1450 1447 1445 1442 1440 1438 1435 1434 1432 1431 1430 1429 1429 1428 1428 1427 1427 1427
1488 1490 1493 1494 1490 1485 1475 1469 1470 1471 1470 1470 1469 1469 1469 1469 1469 1469 1468 1467 1465 1463 1461 1458 1456 1453 1451 1448 1446 1443 1441 1438 1436 1434 1432 1431 1429 1428 1428 1427 1426 1426 1425 1425
1485 1488 1493 1495 1494 1485 1472 1468 1468 1471 1470 1467 1467 1468 1468 1469 1469 1468 1467 1466 1465 1463 1461 1459 1456 1454 1451 1448 1446 1443 1441 1439 1436 1434 1432 1430 1429 1428 1427 1426 1425 1424 1424 1423
1486 1488 1494 1494 1490 1482 1468 1466 1465 1469 1470 1463 1464 1466 1467 1468 1471 1468 1465 1465 1463 1462 1460 1458 1456 1453 1451 1448 1446 1443 1441 1438 1436 1434 1432 1430 1428 1427 1425 1424 1423 1423 1422 1421
1489 1490 1493 1493 1491 1478 1466 1465 1467 1474 1467 1460 1461 1462 1464 1465 1465 1465 1464 1463 1462 1460 1459 1457 1455 1452 1450 1448 1445 1443 1440 1438 1436 1433 1431 1429 1427 1426 1424 1423 1422 1421 1420 1419
1485 1488 1489 1489 1489 1477 1462 1464 1466 1462 1458 1458 1459 1461 1462 1462 1462 1462 1462 1461 1460 1459 1457 1456 1454 1452 1449 1447 1444 1442 1439 1437 1435 1433 1430 1428 1426 1425 1423 1422 1421 1419 1418 1417
1478 1476 1476 1475 1469 1460 1458 1457 1457 1457 1457 1457 1458 1459 1460 1460 1460 1460 1460 1459 1458 1457 1455 1454 1452 1450 1448 1446 1443 1441 1438 1436 1434 1431 1429 1427 1425 1423 1422 1421 1419 1418 1416 1415
1470 1468 1469 1468 1459 1456 1455 1455 1455 1455 1455 1455 1456 1457 1457 1457 1458 1458 1457 1457 1456 1455 1453 1452 1450 1448 1446 1444 1442 1440 1437 1435 1433 1430 1428 1426 1424 1422 1421 1420 1418 1417 1415 1414
1464 1465 1465 1462 1455 1453 1450 1450 1451 1452 1453 1454 1454 1455 1455 1455 1455 1455 1455 1455 1454 1452 1451 1450 1448 1446 1444 1442 1440 1438 1436 1434 1431 1429 1427 1424 1423 1421 1420 1418 1417 1415 1414 1412
1456 1457 1459 1454 1448 1448 1445 1445 1447 1448 1449 1450 1451 1451 1452 1453 1452 1452 1452 1452 1451 1450 1449 1447 1446 1444 1442 1440 1438 1436 1434 1432 1430 1427 1425 1423 1421 1420 1418 1416 1414 1413 1412 1411